This is the latest recevied weather packets stored in our database for station/object VA5EVR-13. If no packets are shown the sender has not sent any weather packets the latest 10 day(s).
| Time | Temp. | Humidity | Pressure | Rain* | Wind** | Luminosity | Snow |
|---|---|---|---|---|---|---|---|
| 1777740012 | 14.44° C | 49% | 88.8 hPa | 0 mm | - | - | - |
| 1777739413 | 13.89° C | 51% | 88.8 hPa | 0 mm | - | - | - |
| 1777738812 | 13.89° C | 54% | 88.8 hPa | 0 mm | - | - | - |
| 1777738212 | 13.89° C | 55% | 88.8 hPa | 0 mm | - | - | - |
| 1777737612 | 13.33° C | 58% | 88.8 hPa | 0 mm | - | - | - |
| 1777737012 | 13.33° C | 60% | 88.8 hPa | 0 mm | - | - | - |
| 1777736412 | 13.33° C | 60% | 88.8 hPa | 0 mm | - | - | - |
| 1777735812 | 13.89° C | 61% | 88.8 hPa | 0 mm | - | - | - |
| 1777735212 | 13.89° C | 62% | 88.8 hPa | 0 mm | - | - | - |
| 1777734612 | 13.89° C | 64% | 88.8 hPa | 0 mm | - | - | - |
| 1777734012 | 13.89° C | 65% | 88.8 hPa | 0 mm | - | - | - |
| 1777732811 | 13.33° C | 66% | 88.8 hPa | 0 mm | - | - | - |
| 1777731612 | 12.22° C | 69% | 88.8 hPa | 0 mm | - | - | - |
| 1777730411 | 11.11° C | 71% | 88.8 hPa | 0 mm | - | - | - |
| 1777729812 | 9.44° C | 75% | 88.8 hPa | 0 mm | - | - | - |
| 1777729212 | 8.89° C | 76% | 88.8 hPa | 0 mm | - | - | - |
| 1777728611 | 8.33° C | 78% | 88.8 hPa | 0 mm | - | - | - |
| 1777728012 | 7.22° C | 80% | 88.8 hPa | 0 mm | - | - | - |
| 1777726811 | 6.67° C | 81% | 88.8 hPa | 0 mm | - | - | - |
| 1777726212 | 6.11° C | 80% | 88.8 hPa | 0 mm | - | - | - |
| 1777725612 | 5.56° C | 80% | 88.8 hPa | 0 mm | - | - | - |
| 1777725011 | 5° C | 81% | 88.8 hPa | 0 mm | - | - | - |
| 1777724412 | 4.44° C | 82% | 88.8 hPa | 0 mm | - | - | - |
| 1777723812 | 4.44° C | 83% | 88.8 hPa | 0 mm | - | - | - |
| 1777722612 | 3.89° C | 84% | 88.8 hPa | 0 mm | - | - | - |
* Rain latest hour (hover to see other rain measurements)
** Current wind speed in m/s (hover to see current wind gust speed)